Regional Weather Roundup
Issued by NWS

Home | Current Version | Previous Version | Graphics & Text | Print | Product List | Glossary On
Versions: 1 2 3 4 5 6 7 8 9 10 11 12 13 14 15 16 17 18 19 20 21 22 23 24 25 26 27 28 29 30 31 32 33 34 35 36 37 38 39 40 41 42 43 44 45 46 47 48 49 50
000
ASUS43 KLSX 050807
RWRMO

WEATHER SUMMARY FOR MISSOURI
NATIONAL WEATHER SERVICE SPRINGFIELD MO
300 AM CDT TUE MAY 05 2015

NOTE: "FAIR" INDICATES FEW OR NO CLOUDS BELOW 12,000 FEET WITH NO
       SIGNIFICANT WEATHER AND/OR OBSTRUCTIONS TO VISIBILITY.
       CURRENT SKY AND/OR WEATHER CONDITIONS ARE NOT AVAILABLE FOR
       CHILLICOTHE AND FARMINGTON.

MOZ001>031-035>038-043-044-053-054-050900-
...NORTHERN AND WESTERN MISSOURI...

CITY           SKY/WX    TMP DP  RH WIND       PRES   REMARKS
KANSAS CTY INT CLOUDY    60  60 100 S6        30.06F
KANSAS C DTWN  CLOUDY    64  61  90 CALM      30.06F
LEE`S SUMMIT   MOCLDY    62  60  93 S3        30.09F
ST JOSEPH      CLOUDY    61  59  93 S3        30.08R
CHILLICOTHE      N/A     61  60  97 SE3       30.08F
KIRKSVILLE     CLOUDY    62  61  96 SE5       30.08F

$$
MOZ066>068-077>081-088>096-101>105-050900-
...SOUTHWEST MISSOURI...

CITY           SKY/WX    TMP DP  RH WIND       PRES   REMARKS
SPRINGFIELD    CLEAR     61  53  75 SE10      30.13F
JOPLIN         CLEAR     63  54  72 SE6       30.11F

$$
MOZ032>034-039>042-045>050-055>058-069>072-050900-
...CENTRAL MISSOURI...

CITY           SKY/WX    TMP DP  RH WIND       PRES   REMARKS
COLUMBIA       CLOUDY    67  56  67 S9        30.10F
JEFFERSON CITY CLOUDY    69  55  60 S5        30.11S
ROLLA          MOCLDY    63  55  75 S8        30.13F
SEDALIA        MOCLDY    65  60  84 E5        30.10F
WHITEMAN AFB   PTCLDY    63  60  91 SE5       30.08F
WARRENSBURG    MOCLDY    61  59  94 W3        30.09S
OSAGE BEACH    PTCLDY    64  54  68 S3        30.12F

$$
MOZ051-052-059>065-050900-
...EAST CENTRAL MISSOURI...

CITY           SKY/WX    TMP DP  RH WIND       PRES   REMARKS
ST LOUIS INTL  CLOUDY    73  54  51 S9        30.14S
SPIRIT OF STL  CLOUDY    70  54  56 S9        30.12F
ST CHARLES     MOCLDY    69  54  58 S7        30.12S

$$
MOZ072>076-082>087-097>100-106>115-050900-
...SOUTH CENTRAL AND SOUTHEAST MISSOURI...

CITY           SKY/WX    TMP DP  RH WIND       PRES   REMARKS
CAPE GIRARDEAU CLEAR     61  51  70 CALM      30.17S
FARMINGTON     MOCLDY    59  52  77 CALM      30.21S
POPLAR BLUFF   PTCLDY    58  54  86 CALM      30.16S
WEST PLAINS    CLEAR     59  52  77 CALM      30.18S

$$



USA.gov is the U.S. government's official web portal to all federal, state and local government web resources and services.